Time,TemperatureF,DewpointF,PressureIn,WindDirection,WindDirectionDegrees,WindSpeedMPH,WindSpeedGustMPH,Humidity,HourlyPrecipIn,Conditions,Clouds,dailyrainin,SoftwareType,DateUTC
2013-09-14 00:03:00,64.0,54.8,29.68,WSW,246,3.0,9.0,72,0.00,,,0.00,Wunderground v.1.15,2013-09-14 07:03:00,
2013-09-14 00:08:00,63.9,54.7,29.68,SSW,210,7.0,9.0,72,0.00,,,0.00,Wunderground v.1.15,2013-09-14 07:08:00,
2013-09-14 00:13:00,63.9,54.3,29.68,SSW,193,7.0,8.0,71,0.00,,,0.00,Wunderground v.1.15,2013-09-14 07:13:00,
2013-09-14 00:18:00,63.8,54.2,29.68,SSW,199,6.0,10.0,71,0.00,,,0.00,Wunderground v.1.15,2013-09-14 07:18:00,
2013-09-14 00:23:00,63.8,54.6,29.68,SSW,196,3.0,11.0,72,0.00,,,0.00,Wunderground v.1.15,2013-09-14 07:23:00,
2013-09-14 00:28:00,63.8,54.6,29.68,SSW,203,4.0,11.0,72,0.00,,,0.00,Wunderground v.1.15,2013-09-14 07:28:00,
2013-09-14 00:34:00,63.7,54.9,29.68,SW,234,7.0,7.0,73,0.00,,,0.00,Wunderground v.1.15,2013-09-14 07:34:00,
2013-09-14 00:39:00,63.6,54.8,29.68,SW,228,6.0,7.0,73,0.00,,,0.00,Wunderground v.1.15,2013-09-14 07:39:00,
2013-09-14 00:44:00,63.5,55.1,29.68,SSW,200,3.0,6.0,74,0.00,,,0.00,Wunderground v.1.15,2013-09-14 07:44:00,
2013-09-14 00:49:00,63.4,55.3,29.68,SW,221,7.0,9.0,75,0.00,,,0.00,Wunderground v.1.15,2013-09-14 07:49:00,
2013-09-14 00:54:00,63.3,55.2,29.69,South,180,8.0,9.0,75,0.00,,,0.00,Wunderground v.1.15,2013-09-14 07:54:00,
2013-09-14 01:00:00,63.2,55.5,29.68,SSW,196,7.0,7.0,76,0.00,,,0.00,Wunderground v.1.15,2013-09-14 08:00:00,
2013-09-14 01:05:00,63.1,55.4,29.68,SSW,201,2.0,7.0,76,0.00,,,0.00,Wunderground v.1.15,2013-09-14 08:05:00,
2013-09-14 01:10:00,63.1,55.4,29.69,South,171,3.0,4.0,76,0.00,,,0.00,Wunderground v.1.15,2013-09-14 08:10:00,
2013-09-14 01:16:00,63.1,55.8,29.68,SSW,196,4.0,4.0,77,0.00,,,0.00,Wunderground v.1.15,2013-09-14 08:16:00,
2013-09-14 01:22:00,63.0,55.7,29.68,SSE,163,4.0,6.0,77,0.00,,,0.00,Wunderground v.1.15,2013-09-14 08:22:00,
2013-09-14 01:27:00,62.9,55.6,29.68,South,181,2.0,7.0,77,0.00,,,0.00,Wunderground v.1.15,2013-09-14 08:27:00,
2013-09-14 01:32:00,62.8,55.1,29.68,SW,219,7.0,8.0,76,0.00,,,0.00,Wunderground v.1.15,2013-09-14 08:32:00,
2013-09-14 01:37:00,62.6,54.9,29.68,SSW,204,5.0,8.0,76,0.00,,,0.00,Wunderground v.1.15,2013-09-14 08:37:00,
2013-09-14 01:42:00,62.5,54.8,29.68,SSW,211,2.0,7.0,76,0.00,,,0.00,Wunderground v.1.15,2013-09-14 08:42:00,
2013-09-14 01:48:00,62.5,54.5,29.68,SSE,165,5.0,7.0,75,0.00,,,0.00,Wunderground v.1.15,2013-09-14 08:48:00,
2013-09-14 01:53:00,62.4,54.4,29.68,South,175,2.0,4.0,75,0.00,,,0.00,Wunderground v.1.15,2013-09-14 08:53:00,
2013-09-14 01:58:00,62.3,54.3,29.68,SW,217,3.0,6.0,75,0.00,,,0.00,Wunderground v.1.15,2013-09-14 08:58:00,
2013-09-14 02:03:00,62.3,54.3,29.68,SW,221,6.0,9.0,75,0.00,,,0.00,Wunderground v.1.15,2013-09-14 09:03:00,
2013-09-14 02:08:00,62.2,54.2,29.68,SSW,194,6.0,10.0,75,0.00,,,0.00,Wunderground v.1.15,2013-09-14 09:08:00,
2013-09-14 02:13:00,62.1,54.4,29.68,SSW,195,8.0,11.0,76,0.00,,,0.00,Wunderground v.1.15,2013-09-14 09:13:00,
2013-09-14 02:18:00,62.1,54.4,29.68,SSW,211,6.0,12.0,76,0.00,,,0.00,Wunderground v.1.15,2013-09-14 09:18:00,
2013-09-14 02:23:00,62.0,54.3,29.68,SSE,160,4.0,9.0,76,0.00,,,0.00,Wunderground v.1.15,2013-09-14 09:23:00,
2013-09-14 02:28:00,62.0,54.7,29.68,SSW,209,7.0,9.0,77,0.00,,,0.00,Wunderground v.1.15,2013-09-14 09:28:00,
2013-09-14 02:33:00,62.0,54.7,29.68,SSW,198,3.0,10.0,77,0.00,,,0.00,Wunderground v.1.15,2013-09-14 09:33:00,
2013-09-14 02:38:00,61.9,55.0,29.69,SSW,204,3.0,10.0,78,0.00,,,0.00,Wunderground v.1.15,2013-09-14 09:38:00,
2013-09-14 02:43:00,61.8,54.9,29.69,South,188,2.0,7.0,78,0.00,,,0.00,Wunderground v.1.15,2013-09-14 09:43:00,
2013-09-14 02:48:00,61.7,54.8,29.69,SSW,198,7.0,9.0,78,0.00,,,0.00,Wunderground v.1.15,2013-09-14 09:48:00,
2013-09-14 02:53:00,61.6,55.0,29.69,SSW,208,5.0,9.0,79,0.00,,,0.00,Wunderground v.1.15,2013-09-14 09:53:00,
2013-09-14 02:58:00,61.5,54.9,29.69,SSW,194,4.0,9.0,79,0.00,,,0.00,Wunderground v.1.15,2013-09-14 09:58:00,
2013-09-14 03:03:00,61.4,54.8,29.69,South,180,5.0,7.0,79,0.00,,,0.00,Wunderground v.1.15,2013-09-14 10:03:00,
2013-09-14 03:08:00,61.3,54.7,29.70,SSW,197,4.0,9.0,79,0.00,,,0.00,Wunderground v.1.15,2013-09-14 10:08:00,
2013-09-14 03:13:00,61.1,54.5,29.70,South,173,4.0,7.0,79,0.00,,,0.00,Wunderground v.1.15,2013-09-14 10:13:00,
2013-09-14 03:18:00,61.0,54.4,29.70,South,180,1.0,7.0,79,0.00,,,0.00,Wunderground v.1.15,2013-09-14 10:18:00,
2013-09-14 03:23:00,60.9,54.3,29.70,South,180,1.0,5.0,79,0.00,,,0.00,Wunderground v.1.15,2013-09-14 10:23:00,
2013-09-14 03:28:00,60.9,54.0,29.70,South,178,4.0,8.0,78,0.00,,,0.00,Wunderground v.1.15,2013-09-14 10:28:00,
2013-09-14 03:33:00,60.8,53.9,29.70,SSW,195,5.0,7.0,78,0.00,,,0.00,Wunderground v.1.15,2013-09-14 10:33:00,
2013-09-14 03:38:00,60.7,53.8,29.70,SSW,201,6.0,7.0,78,0.00,,,0.00,Wunderground v.1.15,2013-09-14 10:38:00,
2013-09-14 03:43:00,60.6,54.0,29.70,South,188,3.0,7.0,79,0.00,,,0.00,Wunderground v.1.15,2013-09-14 10:43:00,
2013-09-14 03:48:00,60.4,53.9,29.70,SSW,201,3.0,7.0,79,0.00,,,0.00,Wunderground v.1.15,2013-09-14 10:48:00,
2013-09-14 03:53:00,60.3,53.8,29.70,SSW,193,2.0,6.0,79,0.00,,,0.00,Wunderground v.1.15,2013-09-14 10:53:00,
2013-09-14 03:58:00,60.3,54.1,29.70,South,175,2.0,7.0,80,0.00,,,0.00,Wunderground v.1.15,2013-09-14 10:58:00,
2013-09-14 04:03:00,60.2,54.0,29.70,SSW,194,4.0,9.0,80,0.00,,,0.00,Wunderground v.1.15,2013-09-14 11:03:00,
2013-09-14 04:08:00,60.1,53.9,29.71,South,178,3.0,9.0,80,0.00,,,0.00,Wunderground v.1.15,2013-09-14 11:08:00,
2013-09-14 04:13:00,60.1,54.2,29.71,South,169,6.0,8.0,81,0.00,,,0.00,Wunderground v.1.15,2013-09-14 11:13:00,
2013-09-14 04:18:00,59.9,54.1,29.70,SSW,198,7.0,10.0,81,0.00,,,0.00,Wunderground v.1.15,2013-09-14 11:18:00,
2013-09-14 04:23:00,59.8,54.3,29.70,South,180,3.0,8.0,82,0.00,,,0.00,Wunderground v.1.15,2013-09-14 11:23:00,
2013-09-14 04:28:00,59.7,54.2,29.71,South,190,5.0,9.0,82,0.00,,,0.00,Wunderground v.1.15,2013-09-14 11:28:00,
2013-09-14 04:33:00,59.6,54.1,29.71,SSW,196,8.0,10.0,82,0.00,,,0.00,Wunderground v.1.15,2013-09-14 11:33:00,
2013-09-14 04:38:00,59.5,54.0,29.71,SSW,213,5.0,10.0,82,0.00,,,0.00,Wunderground v.1.15,2013-09-14 11:38:00,
2013-09-14 04:43:00,59.4,53.9,29.71,SSW,209,3.0,8.0,82,0.00,,,0.00,Wunderground v.1.15,2013-09-14 11:43:00,
2013-09-14 04:48:00,59.2,53.7,29.71,South,170,4.0,10.0,82,0.00,,,0.00,Wunderground v.1.15,2013-09-14 11:48:00,
2013-09-14 04:53:00,59.0,53.8,29.71,South,178,8.0,11.0,83,0.00,,,0.00,Wunderground v.1.15,2013-09-14 11:53:00,
2013-09-14 04:58:00,58.9,53.7,29.71,SSW,207,5.0,11.0,83,0.00,,,0.00,Wunderground v.1.15,2013-09-14 11:58:00,
2013-09-14 05:03:00,58.8,53.6,29.71,SSW,202,7.0,10.0,83,0.00,,,0.00,Wunderground v.1.15,2013-09-14 12:03:00,
2013-09-14 05:08:00,58.8,53.6,29.71,South,184,4.0,11.0,83,0.00,,,0.00,Wunderground v.1.15,2013-09-14 12:08:00,
2013-09-14 05:13:00,58.8,53.6,29.71,South,186,9.0,10.0,83,0.00,,,0.00,Wunderground v.1.15,2013-09-14 12:13:00,
2013-09-14 05:18:00,58.9,53.7,29.71,SSW,193,6.0,10.0,83,0.00,,,0.00,Wunderground v.1.15,2013-09-14 12:18:00,
2013-09-14 05:23:00,58.9,53.7,29.71,SSW,209,5.0,10.0,83,0.00,,,0.00,Wunderground v.1.15,2013-09-14 12:23:00,
2013-09-14 05:28:00,58.9,53.7,29.71,SSW,192,4.0,10.0,83,0.00,,,0.00,Wunderground v.1.15,2013-09-14 12:28:00,
2013-09-14 05:33:00,58.9,53.7,29.71,SW,221,4.0,11.0,83,0.00,,,0.00,Wunderground v.1.15,2013-09-14 12:33:00,
2013-09-14 05:38:00,58.9,53.7,29.72,SSW,204,2.0,11.0,83,0.00,,,0.00,Wunderground v.1.15,2013-09-14 12:38:00,
2013-09-14 05:43:00,59.0,54.2,29.72,SSW,213,5.0,9.0,84,0.00,,,0.00,Wunderground v.1.15,2013-09-14 12:43:00,
2013-09-14 05:48:00,59.0,54.2,29.72,SSW,193,5.0,9.0,84,0.00,,,0.00,Wunderground v.1.15,2013-09-14 12:48:00,
2013-09-14 05:53:00,59.0,54.2,29.72,South,182,1.0,9.0,84,0.00,,,0.00,Wunderground v.1.15,2013-09-14 12:53:00,
2013-09-14 05:58:00,58.9,54.1,29.72,SSE,167,3.0,9.0,84,0.00,,,0.00,Wunderground v.1.15,2013-09-14 12:58:00,
2013-09-14 06:03:00,58.9,54.1,29.73,South,188,5.0,7.0,84,0.00,,,0.00,Wunderground v.1.15,2013-09-14 13:03:00,
2013-09-14 06:08:00,58.8,54.0,29.72,SW,217,2.0,7.0,84,0.00,,,0.00,Wunderground v.1.15,2013-09-14 13:08:00,
2013-09-14 06:13:00,58.8,54.0,29.73,SSW,202,1.0,5.0,84,0.00,,,0.00,Wunderground v.1.15,2013-09-14 13:13:00,
2013-09-14 06:18:00,58.8,54.0,29.72,SSW,205,1.0,5.0,84,0.00,,,0.00,Wunderground v.1.15,2013-09-14 13:18:00,
2013-09-14 06:23:00,58.9,54.1,29.73,SSW,205,0.0,4.0,84,0.00,,,0.00,Wunderground v.1.15,2013-09-14 13:23:00,
2013-09-14 06:28:00,58.8,54.0,29.73,SSW,197,3.0,4.0,84,0.00,,,0.00,Wunderground v.1.15,2013-09-14 13:28:00,
2013-09-14 06:33:00,58.8,54.0,29.73,SSW,197,3.0,3.0,84,0.00,,,0.00,Wunderground v.1.15,2013-09-14 13:33:00,
2013-09-14 06:38:00,58.8,54.0,29.73,South,186,0.0,6.0,84,0.00,,,0.00,Wunderground v.1.15,2013-09-14 13:38:00,
2013-09-14 06:43:00,58.8,54.0,29.73,SSW,197,2.0,4.0,84,0.00,,,0.00,Wunderground v.1.15,2013-09-14 13:43:00,
2013-09-14 06:48:00,58.7,53.9,29.73,South,186,1.0,5.0,84,0.00,,,0.00,Wunderground v.1.15,2013-09-14 13:48:00,
2013-09-14 06:53:00,58.7,53.9,29.74,SSW,192,3.0,7.0,84,0.00,,,0.00,Wunderground v.1.15,2013-09-14 13:53:00,
2013-09-14 06:58:00,58.6,53.8,29.74,SSW,197,3.0,7.0,84,0.00,,,0.00,Wunderground v.1.15,2013-09-14 13:58:00,
2013-09-14 07:03:00,58.5,53.7,29.74,South,187,3.0,6.0,84,0.00,,,0.00,Wunderground v.1.15,2013-09-14 14:03:00,
2013-09-14 07:08:00,58.4,53.9,29.74,SSW,200,2.0,7.0,85,0.00,,,0.00,Wunderground v.1.15,2013-09-14 14:08:00,
2013-09-14 07:13:00,58.4,53.6,29.74,SSW,200,2.0,6.0,84,0.00,,,0.00,Wunderground v.1.15,2013-09-14 14:13:00,
2013-09-14 07:18:00,58.3,53.5,29.75,SSW,196,3.0,6.0,84,0.00,,,0.00,Wunderground v.1.15,2013-09-14 14:18:00,
2013-09-14 07:23:00,58.4,53.9,29.75,SSW,196,3.0,4.0,85,0.00,,,0.00,Wunderground v.1.15,2013-09-14 14:23:00,
2013-09-14 07:28:00,58.4,53.9,29.75,SSW,196,5.0,6.0,85,0.00,,,0.00,Wunderground v.1.15,2013-09-14 14:28:00,
2013-09-14 07:33:00,58.6,54.1,29.75,SSW,198,1.0,6.0,85,0.00,,,0.00,Wunderground v.1.15,2013-09-14 14:33:00,
2013-09-14 07:38:00,58.8,54.0,29.75,SSW,199,1.0,7.0,84,0.00,,,0.00,Wunderground v.1.15,2013-09-14 14:38:00,
2013-09-14 07:44:00,59.1,54.3,29.75,SSW,200,2.0,6.0,84,0.00,,,0.00,Wunderground v.1.15,2013-09-14 14:44:00,
2013-09-14 07:48:00,59.4,54.2,29.75,SW,217,5.0,6.0,83,0.00,,,0.00,Wunderground v.1.15,2013-09-14 14:48:00,
2013-09-14 07:53:00,59.7,54.5,29.75,SSW,208,3.0,5.0,83,0.00,,,0.00,Wunderground v.1.15,2013-09-14 14:53:00,
2013-09-14 07:59:00,60.1,54.6,29.75,SSW,196,3.0,6.0,82,0.00,,,0.00,Wunderground v.1.15,2013-09-14 14:59:00,
2013-09-14 08:03:00,60.4,54.9,29.75,SSW,196,3.0,6.0,82,0.00,,,0.00,Wunderground v.1.15,2013-09-14 15:03:00,
2013-09-14 08:08:00,60.8,55.3,29.76,SSW,205,2.0,7.0,82,0.00,,,0.00,Wunderground v.1.15,2013-09-14 15:08:00,
2013-09-14 08:13:00,61.2,55.3,29.76,SSW,196,2.0,7.0,81,0.00,,,0.00,Wunderground v.1.15,2013-09-14 15:13:00,
2013-09-14 08:18:00,61.5,55.6,29.76,South,179,3.0,7.0,81,0.00,,,0.00,Wunderground v.1.15,2013-09-14 15:18:00,
2013-09-14 08:23:00,61.9,55.7,29.76,South,186,3.0,7.0,80,0.00,,,0.00,Wunderground v.1.15,2013-09-14 15:23:00,
2013-09-14 08:28:00,62.3,56.0,29.76,South,191,5.0,7.0,80,0.00,,,0.00,Wunderground v.1.15,2013-09-14 15:28:00,
2013-09-14 08:33:00,62.6,56.0,29.76,SW,216,2.0,9.0,79,0.00,,,0.00,Wunderground v.1.15,2013-09-14 15:33:00,
2013-09-14 08:38:00,63.0,56.0,29.76,SW,215,2.0,9.0,78,0.00,,,0.00,Wunderground v.1.15,2013-09-14 15:38:00,
2013-09-14 08:43:00,63.3,56.3,29.76,SSW,196,4.0,9.0,78,0.00,,,0.00,Wunderground v.1.15,2013-09-14 15:43:00,
2013-09-14 08:48:00,63.6,56.3,29.76,South,186,5.0,12.0,77,0.00,,,0.00,Wunderground v.1.15,2013-09-14 15:48:00,
2013-09-14 08:53:00,63.8,56.1,29.76,SSW,204,3.0,8.0,76,0.00,,,0.00,Wunderground v.1.15,2013-09-14 15:53:00,
2013-09-14 08:58:00,64.0,56.3,29.76,SSW,203,1.0,8.0,76,0.00,,,0.00,Wunderground v.1.15,2013-09-14 15:58:00,
2013-09-14 09:03:00,64.3,56.6,29.76,SSW,202,3.0,8.0,76,0.00,,,0.00,Wunderground v.1.15,2013-09-14 16:03:00,
2013-09-14 09:08:00,64.6,56.5,29.76,SSW,211,5.0,8.0,75,0.00,,,0.00,Wunderground v.1.15,2013-09-14 16:08:00,
2013-09-14 09:13:00,64.8,56.3,29.76,SSW,202,7.0,12.0,74,0.00,,,0.00,Wunderground v.1.15,2013-09-14 16:13:00,
2013-09-14 09:18:00,64.9,56.4,29.76,SSW,204,2.0,12.0,74,0.00,,,0.00,Wunderground v.1.15,2013-09-14 16:18:00,
2013-09-14 09:23:00,65.1,56.6,29.76,South,190,3.0,7.0,74,0.00,,,0.00,Wunderground v.1.15,2013-09-14 16:23:00,
2013-09-14 09:28:00,65.4,56.5,29.76,SSW,208,5.0,11.0,73,0.00,,,0.00,Wunderground v.1.15,2013-09-14 16:28:00,
2013-09-14 09:33:00,65.7,56.8,29.76,SW,214,8.0,10.0,73,0.00,,,0.00,Wunderground v.1.15,2013-09-14 16:33:00,
2013-09-14 09:39:00,66.0,56.7,29.76,SW,217,6.0,10.0,72,0.00,,,0.00,Wunderground v.1.15,2013-09-14 16:39:00,
2013-09-14 09:44:00,66.1,56.8,29.76,SSW,192,6.0,13.0,72,0.00,,,0.00,Wunderground v.1.15,2013-09-14 16:44:00,
2013-09-14 09:49:00,66.2,56.5,29.76,South,171,3.0,13.0,71,0.00,,,0.00,Wunderground v.1.15,2013-09-14 16:49:00,
2013-09-14 09:54:00,66.6,56.9,29.77,SW,218,3.0,9.0,71,0.00,,,0.00,Wunderground v.1.15,2013-09-14 16:54:00,
2013-09-14 09:59:00,66.9,56.8,29.77,SSE,166,5.0,12.0,70,0.00,,,0.00,Wunderground v.1.15,2013-09-14 16:59:00,
2013-09-14 10:04:00,67.1,56.6,29.77,WSW,240,6.0,12.0,69,0.00,,,0.00,Wunderground v.1.15,2013-09-14 17:04:00,
2013-09-14 10:09:00,67.4,56.9,29.77,South,191,5.0,12.0,69,0.00,,,0.00,Wunderground v.1.15,2013-09-14 17:09:00,
2013-09-14 10:14:00,67.5,56.6,29.77,SSW,199,7.0,12.0,68,0.00,,,0.00,Wunderground v.1.15,2013-09-14 17:14:00,
2013-09-14 10:19:00,67.8,56.9,29.77,SSW,202,6.0,13.0,68,0.00,,,0.00,Wunderground v.1.15,2013-09-14 17:19:00,
2013-09-14 10:24:00,68.0,57.0,29.77,SW,218,5.0,13.0,68,0.00,,,0.00,Wunderground v.1.15,2013-09-14 17:24:00,
2013-09-14 10:29:00,68.1,56.7,29.77,SW,230,5.0,14.0,67,0.00,,,0.00,Wunderground v.1.15,2013-09-14 17:29:00,
2013-09-14 10:34:00,68.2,56.8,29.77,South,184,7.0,13.0,67,0.00,,,0.00,Wunderground v.1.15,2013-09-14 17:34:00,
2013-09-14 10:39:00,68.6,56.8,29.77,SW,217,4.0,13.0,66,0.00,,,0.00,Wunderground v.1.15,2013-09-14 17:39:00,
2013-09-14 10:44:00,68.8,57.0,29.77,SSW,193,8.0,11.0,66,0.00,,,0.00,Wunderground v.1.15,2013-09-14 17:44:00,
2013-09-14 10:50:00,69.1,57.3,29.77,South,171,3.0,7.0,66,0.00,,,0.00,Wunderground v.1.15,2013-09-14 17:50:00,
2013-09-14 10:55:00,69.5,57.2,29.77,SSW,202,10.0,11.0,65,0.00,,,0.00,Wunderground v.1.15,2013-09-14 17:55:00,
2013-09-14 11:00:00,69.7,57.4,29.77,South,186,9.0,9.0,65,0.00,,,0.00,Wunderground v.1.15,2013-09-14 18:00:00,
2013-09-14 11:05:00,70.1,57.4,29.77,SW,216,8.0,10.0,64,0.00,,,0.00,Wunderground v.1.15,2013-09-14 18:05:00,
2013-09-14 11:10:00,70.2,57.0,29.77,SSW,200,5.0,7.0,63,0.00,,,0.00,Wunderground v.1.15,2013-09-14 18:10:00,
2013-09-14 11:15:00,70.5,57.7,29.77,SSW,201,6.0,12.0,64,0.00,,,0.00,Wunderground v.1.15,2013-09-14 18:15:00,
2013-09-14 11:20:00,70.8,57.1,29.77,SW,221,4.0,6.0,62,0.00,,,0.00,Wunderground v.1.15,2013-09-14 18:20:00,
2013-09-14 11:25:00,71.2,57.1,29.77,SSE,156,7.0,14.0,61,0.00,,,0.00,Wunderground v.1.15,2013-09-14 18:25:00,
2013-09-14 11:30:00,71.2,57.1,29.76,South,186,11.0,14.0,61,0.00,,,0.00,Wunderground v.1.15,2013-09-14 18:30:00,
2013-09-14 11:35:00,71.3,57.2,29.76,South,180,3.0,15.0,61,0.00,,,0.00,Wunderground v.1.15,2013-09-14 18:35:00,
2013-09-14 11:40:00,71.5,57.3,29.76,SSW,205,7.0,10.0,61,0.00,,,0.00,Wunderground v.1.15,2013-09-14 18:40:00,
2013-09-14 11:45:00,72.2,57.5,29.76,SSW,211,5.0,12.0,60,0.00,,,0.00,Wunderground v.1.15,2013-09-14 18:45:00,
2013-09-14 11:50:00,72.1,57.0,29.76,South,189,5.0,9.0,59,0.00,,,0.00,Wunderground v.1.15,2013-09-14 18:50:00,
2013-09-14 11:55:00,72.4,57.3,29.76,SSW,211,7.0,13.0,59,0.00,,,0.00,Wunderground v.1.15,2013-09-14 18:55:00,
2013-09-14 12:00:00,72.5,57.4,29.75,South,186,8.0,9.0,59,0.00,,,0.00,Wunderground v.1.15,2013-09-14 19:00:00,
2013-09-14 12:05:00,73.0,57.3,29.75,SSW,193,5.0,13.0,58,0.00,,,0.00,Wunderground v.1.15,2013-09-14 19:05:00,
2013-09-14 12:10:00,73.7,57.5,29.75,SSW,194,6.0,12.0,57,0.00,,,0.00,Wunderground v.1.15,2013-09-14 19:10:00,
2013-09-14 12:15:00,74.2,57.5,29.75,SSE,159,5.0,12.0,56,0.00,,,0.00,Wunderground v.1.15,2013-09-14 19:15:00,
2013-09-14 12:20:00,74.9,57.6,29.75,SSW,200,7.0,10.0,55,0.00,,,0.00,Wunderground v.1.15,2013-09-14 19:20:00,
2013-09-14 12:25:00,75.2,57.9,29.75,WSW,247,9.0,11.0,55,0.00,,,0.00,Wunderground v.1.15,2013-09-14 19:25:00,
2013-09-14 12:30:00,75.9,58.1,29.74,South,189,3.0,6.0,54,0.00,,,0.00,Wunderground v.1.15,2013-09-14 19:30:00,
2013-09-14 12:35:00,76.3,57.9,29.74,South,172,9.0,13.0,53,0.00,,,0.00,Wunderground v.1.15,2013-09-14 19:35:00,
2013-09-14 12:40:00,76.9,57.9,29.74,SSW,212,3.0,7.0,52,0.00,,,0.00,Wunderground v.1.15,2013-09-14 19:40:00,
2013-09-14 12:45:00,77.2,58.2,29.74,SSW,209,4.0,10.0,52,0.00,,,0.00,Wunderground v.1.15,2013-09-14 19:45:00,
2013-09-14 12:50:00,77.1,58.1,29.74,South,178,6.0,7.0,52,0.00,,,0.00,Wunderground v.1.15,2013-09-14 19:50:00,
2013-09-14 12:55:00,77.2,57.7,29.74,SSW,196,4.0,12.0,51,0.00,,,0.00,Wunderground v.1.15,2013-09-14 19:55:00,
2013-09-14 13:00:00,77.4,57.9,29.73,SW,218,10.0,10.0,51,0.00,,,0.00,Wunderground v.1.15,2013-09-14 20:00:00,
2013-09-14 13:06:00,77.9,58.3,29.73,South,178,5.0,11.0,51,0.00,,,0.00,Wunderground v.1.15,2013-09-14 20:06:00,
2013-09-14 13:11:00,78.4,58.2,29.73,SSW,200,6.0,11.0,50,0.00,,,0.00,Wunderground v.1.15,2013-09-14 20:11:00,
2013-09-14 13:16:00,78.7,58.5,29.73,South,180,8.0,12.0,50,0.00,,,0.00,Wunderground v.1.15,2013-09-14 20:16:00,
2013-09-14 13:21:00,79.2,59.0,29.72,South,190,8.0,10.0,50,0.00,,,0.00,Wunderground v.1.15,2013-09-14 20:21:00,
2013-09-14 13:26:00,79.7,58.8,29.72,SSW,200,7.0,12.0,49,0.00,,,0.00,Wunderground v.1.15,2013-09-14 20:26:00,
2013-09-14 13:31:00,80.2,58.7,29.72,South,174,5.0,12.0,48,0.00,,,0.00,Wunderground v.1.15,2013-09-14 20:31:00,
2013-09-14 13:36:00,80.2,58.7,29.72,South,180,8.0,14.0,48,0.00,,,0.00,Wunderground v.1.15,2013-09-14 20:36:00,
2013-09-14 13:41:00,80.6,59.7,29.72,SSW,206,7.0,14.0,49,0.00,,,0.00,Wunderground v.1.15,2013-09-14 20:41:00,
2013-09-14 13:46:00,80.9,59.9,29.71,SSW,202,6.0,14.0,49,0.00,,,0.00,Wunderground v.1.15,2013-09-14 20:46:00,
2013-09-14 13:51:00,81.0,60.0,29.71,South,180,5.0,15.0,49,0.00,,,0.00,Wunderground v.1.15,2013-09-14 20:51:00,
2013-09-14 13:56:00,81.5,59.9,29.71,SW,228,5.0,15.0,48,0.00,,,0.00,Wunderground v.1.15,2013-09-14 20:56:00,
2013-09-14 14:01:00,81.2,60.2,29.71,South,180,13.0,14.0,49,0.00,,,0.00,Wunderground v.1.15,2013-09-14 21:01:00,
2013-09-14 14:06:00,81.3,59.7,29.71,SW,215,10.0,14.0,48,0.00,,,0.00,Wunderground v.1.15,2013-09-14 21:06:00,
2013-09-14 14:11:00,81.5,59.9,29.70,SSW,194,6.0,13.0,48,0.00,,,0.00,Wunderground v.1.15,2013-09-14 21:11:00,
2013-09-14 14:16:00,81.6,60.0,29.70,SSW,212,7.0,15.0,48,0.00,,,0.00,Wunderground v.1.15,2013-09-14 21:16:00,
2013-09-14 14:21:00,81.8,60.2,29.70,SW,217,5.0,14.0,48,0.00,,,0.00,Wunderground v.1.15,2013-09-14 21:21:00,
2013-09-14 14:26:00,82.0,60.4,29.70,SW,223,7.0,14.0,48,0.00,,,0.00,Wunderground v.1.15,2013-09-14 21:26:00,
2013-09-14 14:31:00,82.1,60.5,29.70,SW,220,6.0,11.0,48,0.00,,,0.00,Wunderground v.1.15,2013-09-14 21:31:00,
2013-09-14 14:36:00,82.3,60.6,29.69,SSW,200,3.0,16.0,48,0.00,,,0.00,Wunderground v.1.15,2013-09-14 21:36:00,
2013-09-14 14:41:00,82.2,60.6,29.69,SSW,211,6.0,13.0,48,0.00,,,0.00,Wunderground v.1.15,2013-09-14 21:41:00,
2013-09-14 14:46:00,82.7,61.0,29.69,SSW,207,6.0,16.0,48,0.00,,,0.00,Wunderground v.1.15,2013-09-14 21:46:00,
2013-09-14 14:51:00,83.1,60.8,29.69,SSW,202,3.0,9.0,47,0.00,,,0.00,Wunderground v.1.15,2013-09-14 21:51:00,
2013-09-14 14:56:00,83.3,61.0,29.69,SSW,209,4.0,15.0,47,0.00,,,0.00,Wunderground v.1.15,2013-09-14 21:56:00,
2013-09-14 15:01:00,83.2,60.9,29.68,South,172,3.0,11.0,47,0.00,,,0.00,Wunderground v.1.15,2013-09-14 22:01:00,
2013-09-14 15:06:00,83.5,60.5,29.68,SSE,161,6.0,13.0,46,0.00,,,0.00,Wunderground v.1.15,2013-09-14 22:06:00,
2013-09-14 15:11:00,83.6,60.6,29.68,South,179,5.0,14.0,46,0.00,,,0.00,Wunderground v.1.15,2013-09-14 22:11:00,
2013-09-14 15:16:00,83.5,60.5,29.68,SSW,194,4.0,16.0,46,0.00,,,0.00,Wunderground v.1.15,2013-09-14 22:16:00,
2013-09-14 15:21:00,83.4,60.4,29.68,SW,232,4.0,12.0,46,0.00,,,0.00,Wunderground v.1.15,2013-09-14 22:21:00,
2013-09-14 15:26:00,83.5,60.5,29.68,SW,227,9.0,15.0,46,0.00,,,0.00,Wunderground v.1.15,2013-09-14 22:26:00,
2013-09-14 15:31:00,83.0,60.1,29.68,SSW,213,6.0,14.0,46,0.00,,,0.00,Wunderground v.1.15,2013-09-14 22:31:00,
2013-09-14 15:36:00,83.0,60.7,29.68,WSW,248,9.0,14.0,47,0.00,,,0.00,Wunderground v.1.15,2013-09-14 22:36:00,
2013-09-14 15:41:00,83.1,60.2,29.67,South,173,10.0,14.0,46,0.00,,,0.00,Wunderground v.1.15,2013-09-14 22:41:00,
2013-09-14 15:47:00,82.7,60.4,29.67,South,188,3.0,16.0,47,0.00,,,0.00,Wunderground v.1.15,2013-09-14 22:47:00,
2013-09-14 15:49:00,82.9,60.0,29.67,South,180,9.0,16.0,46,0.00,,,0.00,Wunderground v.1.15,2013-09-14 22:49:00,
2013-09-14 15:54:00,83.0,60.1,29.67,SW,217,11.0,15.0,46,0.00,,,0.00,Wunderground v.1.15,2013-09-14 22:54:00,
2013-09-14 15:59:00,83.1,60.2,29.67,SW,217,4.0,15.0,46,0.00,,,0.00,Wunderground v.1.15,2013-09-14 22:59:00,
2013-09-14 16:04:00,82.9,60.0,29.67,WSW,241,9.0,14.0,46,0.00,,,0.00,Wunderground v.1.15,2013-09-14 23:04:00,
2013-09-14 16:09:00,82.8,60.5,29.66,SSE,159,6.0,14.0,47,0.00,,,0.00,Wunderground v.1.15,2013-09-14 23:09:00,
2013-09-14 16:15:00,82.5,60.2,29.66,South,182,8.0,14.0,47,0.00,,,0.00,Wunderground v.1.15,2013-09-14 23:15:00,
2013-09-14 16:20:00,82.1,59.9,29.66,SSE,167,8.0,8.0,47,0.00,,,0.00,Wunderground v.1.15,2013-09-14 23:20:00,
2013-09-14 16:25:00,82.2,60.0,29.66,SSE,168,10.0,14.0,47,0.00,,,0.00,Wunderground v.1.15,2013-09-14 23:25:00,
2013-09-14 16:30:00,82.0,59.8,29.66,South,172,5.0,8.0,47,0.00,,,0.00,Wunderground v.1.15,2013-09-14 23:30:00,
2013-09-14 16:35:00,82.1,59.9,29.65,SSE,167,5.0,17.0,47,0.00,,,0.00,Wunderground v.1.15,2013-09-14 23:35:00,
2013-09-14 16:40:00,82.0,60.4,29.65,SSW,205,7.0,7.0,48,0.00,,,0.00,Wunderground v.1.15,2013-09-14 23:40:00,
2013-09-14 16:45:00,81.9,60.3,29.65,SSE,166,4.0,14.0,48,0.00,,,0.00,Wunderground v.1.15,2013-09-14 23:45:00,
2013-09-14 16:50:00,81.7,60.1,29.65,SW,215,6.0,11.0,48,0.00,,,0.00,Wunderground v.1.15,2013-09-14 23:50:00,
2013-09-14 16:55:00,81.6,60.0,29.65,SW,221,3.0,15.0,48,0.00,,,0.00,Wunderground v.1.15,2013-09-14 23:55:00,
2013-09-14 17:00:00,81.7,60.1,29.65,SSW,210,4.0,8.0,48,0.00,,,0.00,Wunderground v.1.15,2013-09-15 00:00:00,
2013-09-14 17:05:00,81.8,59.6,29.65,SW,229,9.0,17.0,47,0.00,,,0.00,Wunderground v.1.15,2013-09-15 00:05:00,
2013-09-14 17:10:00,81.8,59.6,29.65,SW,216,6.0,7.0,47,0.00,,,0.00,Wunderground v.1.15,2013-09-15 00:10:00,
2013-09-14 17:15:00,81.7,60.1,29.65,SW,216,8.0,15.0,48,0.00,,,0.00,Wunderground v.1.15,2013-09-15 00:15:00,
2013-09-14 17:20:00,81.5,59.9,29.65,SSW,192,4.0,7.0,48,0.00,,,0.00,Wunderground v.1.15,2013-09-15 00:20:00,
2013-09-14 17:25:00,81.4,59.8,29.65,SW,220,1.0,13.0,48,0.00,,,0.00,Wunderground v.1.15,2013-09-15 00:25:00,
2013-09-14 17:30:00,81.4,59.8,29.65,SSW,213,3.0,7.0,48,0.00,,,0.00,Wunderground v.1.15,2013-09-15 00:30:00,
2013-09-14 17:35:00,81.3,59.7,29.65,SSW,198,6.0,15.0,48,0.00,,,0.00,Wunderground v.1.15,2013-09-15 00:35:00,
2013-09-14 17:40:00,81.2,59.6,29.65,SSW,207,6.0,7.0,48,0.00,,,0.00,Wunderground v.1.15,2013-09-15 00:40:00,
2013-09-14 17:45:00,81.1,59.6,29.65,SSW,208,7.0,13.0,48,0.00,,,0.00,Wunderground v.1.15,2013-09-15 00:45:00,
2013-09-14 17:50:00,80.8,59.3,29.65,SSW,205,7.0,10.0,48,0.00,,,0.00,Wunderground v.1.15,2013-09-15 00:50:00,
2013-09-14 17:55:00,80.6,59.1,29.65,South,174,9.0,13.0,48,0.00,,,0.00,Wunderground v.1.15,2013-09-15 00:55:00,
2013-09-14 18:00:00,80.3,58.8,29.65,South,176,5.0,8.0,48,0.00,,,0.00,Wunderground v.1.15,2013-09-15 01:00:00,
2013-09-14 18:05:00,80.1,58.6,29.64,SSE,165,3.0,13.0,48,0.00,,,0.00,Wunderground v.1.15,2013-09-15 01:05:00,
2013-09-14 18:10:00,79.9,58.5,29.64,SSE,161,5.0,6.0,48,0.00,,,0.00,Wunderground v.1.15,2013-09-15 01:10:00,
2013-09-14 18:15:00,79.8,58.4,29.64,SSW,203,4.0,13.0,48,0.00,,,0.00,Wunderground v.1.15,2013-09-15 01:15:00,
2013-09-14 18:20:00,80.0,58.0,29.64,South,180,3.0,5.0,47,0.00,,,0.00,Wunderground v.1.15,2013-09-15 01:20:00,
2013-09-14 18:25:00,80.1,57.5,29.64,SSW,205,7.0,10.0,46,0.00,,,0.00,Wunderground v.1.15,2013-09-15 01:25:00,
2013-09-14 18:30:00,80.2,57.5,29.64,SSW,213,2.0,3.0,46,0.00,,,0.00,Wunderground v.1.15,2013-09-15 01:30:00,
2013-09-14 18:35:00,80.2,57.5,29.64,South,186,2.0,9.0,46,0.00,,,0.00,Wunderground v.1.15,2013-09-15 01:35:00,
2013-09-14 18:40:00,80.0,57.4,29.64,SSW,195,7.0,7.0,46,0.00,,,0.00,Wunderground v.1.15,2013-09-15 01:40:00,
2013-09-14 18:45:00,79.6,57.6,29.64,SW,232,7.0,11.0,47,0.00,,,0.00,Wunderground v.1.15,2013-09-15 01:45:00,
2013-09-14 18:50:00,78.7,57.4,29.64,SSW,200,7.0,10.0,48,0.00,,,0.00,Wunderground v.1.15,2013-09-15 01:50:00,
2013-09-14 18:55:00,77.4,56.7,29.64,South,176,10.0,17.0,49,0.00,,,0.00,Wunderground v.1.15,2013-09-15 01:55:00,
2013-09-14 19:00:00,75.9,56.5,29.64,SSW,212,7.0,9.0,51,0.00,,,0.00,Wunderground v.1.15,2013-09-15 02:00:00,
2013-09-14 19:05:00,74.7,55.9,29.65,SSW,204,7.0,17.0,52,0.00,,,0.00,Wunderground v.1.15,2013-09-15 02:05:00,
2013-09-14 19:10:00,73.7,55.5,29.65,WSW,240,5.0,12.0,53,0.00,,,0.00,Wunderground v.1.15,2013-09-15 02:10:00,
2013-09-14 19:16:00,72.9,55.3,29.65,SSW,195,7.0,20.0,54,0.00,,,0.00,Wunderground v.1.15,2013-09-15 02:16:00,
2013-09-14 19:21:00,72.2,55.1,29.65,WSW,241,6.0,12.0,55,0.00,,,0.00,Wunderground v.1.15,2013-09-15 02:21:00,
2013-09-14 19:26:00,71.8,55.3,29.65,SSW,192,18.0,18.0,56,0.00,,,0.00,Wunderground v.1.15,2013-09-15 02:26:00,
2013-09-14 19:31:00,71.3,55.3,29.65,SW,231,10.0,13.0,57,0.00,,,0.00,Wunderground v.1.15,2013-09-15 02:31:00,
2013-09-14 19:36:00,70.9,55.4,29.65,South,190,9.0,20.0,58,0.00,,,0.00,Wunderground v.1.15,2013-09-15 02:36:00,
2013-09-14 19:41:00,70.6,55.1,29.65,SW,226,6.0,15.0,58,0.00,,,0.00,Wunderground v.1.15,2013-09-15 02:41:00,
2013-09-14 19:46:00,70.3,55.3,29.66,SW,223,8.0,16.0,59,0.00,,,0.00,Wunderground v.1.15,2013-09-15 02:46:00,
2013-09-14 19:51:00,69.9,54.9,29.66,SSW,211,8.0,16.0,59,0.00,,,0.00,Wunderground v.1.15,2013-09-15 02:51:00,
2013-09-14 19:56:00,69.5,55.5,29.66,SSW,205,6.0,17.0,61,0.00,,,0.00,Wunderground v.1.15,2013-09-15 02:56:00,
2013-09-14 20:01:00,69.1,55.1,29.66,SW,216,7.0,14.0,61,0.00,,,0.00,Wunderground v.1.15,2013-09-15 03:01:00,
2013-09-14 20:06:00,68.7,55.2,29.66,SW,214,4.0,18.0,62,0.00,,,0.00,Wunderground v.1.15,2013-09-15 03:06:00,
2013-09-14 20:11:00,68.2,55.1,29.66,SSW,206,9.0,15.0,63,0.00,,,0.00,Wunderground v.1.15,2013-09-15 03:11:00,
2013-09-14 20:16:00,67.8,55.2,29.66,SSW,200,8.0,16.0,64,0.00,,,0.00,Wunderground v.1.15,2013-09-15 03:16:00,
2013-09-14 20:21:00,67.5,55.3,29.66,SSW,209,7.0,16.0,65,0.00,,,0.00,Wunderground v.1.15,2013-09-15 03:21:00,
2013-09-14 20:26:00,67.1,54.9,29.67,SSW,207,8.0,17.0,65,0.00,,,0.00,Wunderground v.1.15,2013-09-15 03:26:00,
2013-09-14 20:31:00,66.7,55.0,29.67,SSW,208,11.0,19.0,66,0.00,,,0.00,Wunderground v.1.15,2013-09-15 03:31:00,
2013-09-14 20:36:00,66.4,54.7,29.67,South,183,8.0,19.0,66,0.00,,,0.00,Wunderground v.1.15,2013-09-15 03:36:00,
2013-09-14 20:41:00,66.1,54.8,29.67,SSW,209,9.0,21.0,67,0.00,,,0.00,Wunderground v.1.15,2013-09-15 03:41:00,
2013-09-14 20:46:00,65.9,54.6,29.67,SSW,206,15.0,21.0,67,0.00,,,0.00,Wunderground v.1.15,2013-09-15 03:46:00,
2013-09-14 20:51:00,65.6,54.3,29.67,South,183,12.0,17.0,67,0.00,,,0.00,Wunderground v.1.15,2013-09-15 03:51:00,
2013-09-14 20:56:00,65.4,54.6,29.67,SW,220,5.0,17.0,68,0.00,,,0.00,Wunderground v.1.15,2013-09-15 03:56:00,
2013-09-14 21:01:00,65.2,54.4,29.67,WSW,237,10.0,13.0,68,0.00,,,0.00,Wunderground v.1.15,2013-09-15 04:01:00,
2013-09-14 21:06:00,65.0,54.6,29.68,SSW,194,11.0,14.0,69,0.00,,,0.00,Wunderground v.1.15,2013-09-15 04:06:00,
2013-09-14 21:11:00,64.7,54.7,29.68,SSW,192,7.0,13.0,70,0.00,,,0.00,Wunderground v.1.15,2013-09-15 04:11:00,
2013-09-14 21:16:00,64.5,54.5,29.68,SW,221,9.0,16.0,70,0.00,,,0.00,Wunderground v.1.15,2013-09-15 04:16:00,
2013-09-14 21:21:00,64.3,54.7,29.68,SSW,211,6.0,16.0,71,0.00,,,0.00,Wunderground v.1.15,2013-09-15 04:21:00,
2013-09-14 21:26:00,64.1,54.5,29.68,South,186,9.0,18.0,71,0.00,,,0.00,Wunderground v.1.15,2013-09-15 04:26:00,
2013-09-14 21:31:00,63.9,54.3,29.68,SW,230,7.0,15.0,71,0.00,,,0.00,Wunderground v.1.15,2013-09-15 04:31:00,
2013-09-14 21:36:00,63.8,54.6,29.68,SSW,213,7.0,17.0,72,0.00,,,0.00,Wunderground v.1.15,2013-09-15 04:36:00,
2013-09-14 21:41:00,63.8,54.6,29.68,WSW,249,7.0,10.0,72,0.00,,,0.00,Wunderground v.1.15,2013-09-15 04:41:00,
2013-09-14 21:46:00,63.8,54.6,29.68,SSW,197,7.0,16.0,72,0.00,,,0.00,Wunderground v.1.15,2013-09-15 04:46:00,
2013-09-14 21:51:00,63.7,54.1,29.68,SSW,206,7.0,18.0,71,0.00,,,0.00,Wunderground v.1.15,2013-09-15 04:51:00,
2013-09-14 21:56:00,63.6,54.4,29.68,SSW,202,4.0,18.0,72,0.00,,,0.00,Wunderground v.1.15,2013-09-15 04:56:00,
2013-09-14 22:01:00,63.6,54.4,29.68,WSW,244,6.0,10.0,72,0.00,,,0.00,Wunderground v.1.15,2013-09-15 05:01:00,
2013-09-14 22:06:00,63.6,54.0,29.68,SSE,163,3.0,13.0,71,0.00,,,0.00,Wunderground v.1.15,2013-09-15 05:06:00,
2013-09-14 22:11:00,63.5,54.3,29.68,South,182,10.0,16.0,72,0.00,,,0.00,Wunderground v.1.15,2013-09-15 05:11:00,
2013-09-14 22:17:00,63.4,54.2,29.68,SSW,199,11.0,16.0,72,0.00,,,0.00,Wunderground v.1.15,2013-09-15 05:17:00,
2013-09-14 22:22:00,63.2,54.0,29.68,WSW,250,6.0,12.0,72,0.00,,,0.00,Wunderground v.1.15,2013-09-15 05:22:00,
2013-09-14 22:27:00,63.2,54.0,29.68,SW,225,6.0,13.0,72,0.00,,,0.00,Wunderground v.1.15,2013-09-15 05:27:00,
2013-09-14 22:32:00,63.3,54.1,29.68,SSW,192,2.0,9.0,72,0.00,,,0.00,Wunderground v.1.15,2013-09-15 05:32:00,
2013-09-14 22:37:00,63.5,54.3,29.68,SSW,212,4.0,12.0,72,0.00,,,0.00,Wunderground v.1.15,2013-09-15 05:37:00,
2013-09-14 22:42:00,63.8,54.2,29.68,SSW,192,6.0,13.0,71,0.00,,,0.00,Wunderground v.1.15,2013-09-15 05:42:00,
2013-09-14 22:47:00,63.9,54.3,29.67,WSW,237,4.0,18.0,71,0.00,,,0.00,Wunderground v.1.15,2013-09-15 05:47:00,
2013-09-14 22:52:00,63.8,54.2,29.68,SSW,209,5.0,14.0,71,0.00,,,0.00,Wunderground v.1.15,2013-09-15 05:52:00,
2013-09-14 22:57:00,63.8,54.2,29.68,WSW,242,6.0,14.0,71,0.00,,,0.00,Wunderground v.1.15,2013-09-15 05:57:00,
2013-09-14 23:02:00,63.6,54.0,29.68,South,187,14.0,14.0,71,0.00,,,0.00,Wunderground v.1.15,2013-09-15 06:02:00,
2013-09-14 23:07:00,63.5,53.9,29.68,South,175,7.0,14.0,71,0.00,,,0.00,Wunderground v.1.15,2013-09-15 06:07:00,
2013-09-14 23:12:00,63.4,53.8,29.68,SW,225,4.0,12.0,71,0.00,,,0.00,Wunderground v.1.15,2013-09-15 06:12:00,
2013-09-14 23:17:00,63.3,53.7,29.68,South,169,6.0,14.0,71,0.00,,,0.00,Wunderground v.1.15,2013-09-15 06:17:00,
2013-09-14 23:22:00,63.1,53.9,29.68,South,190,9.0,14.0,72,0.00,,,0.00,Wunderground v.1.15,2013-09-15 06:22:00,
2013-09-14 23:27:00,62.9,53.7,29.68,SW,234,9.0,14.0,72,0.00,,,0.00,Wunderground v.1.15,2013-09-15 06:27:00,
2013-09-14 23:32:00,62.8,54.0,29.68,SSW,207,8.0,14.0,73,0.00,,,0.00,Wunderground v.1.15,2013-09-15 06:32:00,
2013-09-14 23:37:00,62.6,53.8,29.69,SSE,150,5.0,14.0,73,0.00,,,0.00,Wunderground v.1.15,2013-09-15 06:37:00,
2013-09-14 23:42:00,62.5,53.7,29.69,SSE,166,6.0,11.0,73,0.00,,,0.00,Wunderground v.1.15,2013-09-15 06:42:00,
2013-09-14 23:47:00,62.3,53.5,29.69,SW,221,7.0,11.0,73,0.00,,,0.00,Wunderground v.1.15,2013-09-15 06:47:00,
2013-09-14 23:52:00,62.1,53.7,29.69,South,188,7.0,15.0,74,0.00,,,0.00,Wunderground v.1.15,2013-09-15 06:52:00,
2013-09-14 23:57:00,61.9,53.9,29.68,SW,217,8.0,15.0,75,0.00,,,0.00,Wunderground v.1.15,2013-09-15 06:57:00,